Total_Precipitation_Accumulation
0.00 0.01 0.01 0.01 0.02 0.04 0.05 0.07 0.17 0.24 0.15 0.17 0.31 0.49 0.70 0.87 1.02 1.08 1.26 1.26 1.45 1.70 1.85 2.23 2.58 3.02 3.46 3.97 4.70 5.31 5.71 5.68 5.46 5.08 4.69 4.39 3.91 3.61 3.33 3.04 2.81 2.55 2.29 2.20
0.01 0.02 0.02 0.02 0.02 0.04 0.06 0.10 0.21 0.24 0.15 0.16 0.31 0.54 0.80 0.90 0.88 0.91 1.13 1.25 1.32 1.51 1.80 2.14 2.65 2.94 3.27 3.78 4.29 4.74 4.72 4.39 4.25 4.19 4.11 3.85 3.85 3.71 3.55 3.29 3.05 2.64 2.46 2.31
0.03 0.04 0.02 0.02 0.04 0.04 0.06 0.09 0.15 0.21 0.23 0.24 0.34 0.68 0.94 0.98 0.87 0.82 0.86 0.98 1.11 1.25 1.44 1.78 2.33 2.62 2.79 3.22 3.56 3.62 3.49 3.31 3.34 3.38 3.36 3.44 3.65 3.65 3.57 3.41 3.13 2.83 2.67 2.55
0.02 0.02 0.03 0.04 0.06 0.05 0.09 0.07 0.08 0.11 0.20 0.42 0.48 0.86 1.16 1.26 1.17 0.95 0.85 0.96 1.04 1.14 1.20 1.48 1.81 2.02 2.25 2.44 2.61 2.62 2.69 2.71 2.72 2.74 2.72 2.65 2.69 2.85 3.06 3.28 3.30 3.24 3.02 2.77
0.03 0.04 0.04 0.05 0.05 0.06 0.06 0.05 0.06 0.10 0.15 0.30 0.42 0.67 1.12 1.39 1.53 1.19 0.95 0.88 0.83 0.97 1.22 1.42 1.51 1.63 1.72 1.75 1.88 1.94 2.23 2.55 2.64 2.66 2.75 2.67 2.40 2.37 2.41 2.56 2.70 2.70 2.69 2.54
0.04 0.05 0.05 0.04 0.04 0.06 0.07 0.10 0.16 0.24 0.37 0.61 0.59 0.64 1.02 1.27 1.38 1.11 0.93 0.87 0.74 0.76 0.94 1.15 1.38 1.43 1.38 1.37 1.53 1.74 2.05 2.43 2.63 2.67 2.64 2.61 2.51 2.47 2.37 2.34 2.36 2.25 2.23 2.19
0.15 0.13 0.10 0.06 0.06 0.07 0.08 0.16 0.48 0.83 1.16 1.20 0.70 0.68 0.93 0.97 0.90 0.91 0.78 0.73 0.77 0.70 0.69 0.70 0.88 1.10 1.07 1.04 1.18 1.46 1.67 1.94 2.15 2.24 2.26 2.18 2.29 2.40 2.27 2.13 2.03 1.94 1.81 1.74
0.18 0.22 0.14 0.09 0.07 0.07 0.08 0.12 0.36 0.61 0.79 0.92 0.74 1.08 1.21 0.90 0.75 0.65 0.54 0.51 0.58 0.54 0.50 0.48 0.55 0.69 0.90 0.90 0.93 1.05 1.31 1.50 1.68 1.78 1.90 2.00 2.17 2.28 2.22 2.36 2.15 1.99 1.70 1.58
0.07 0.11 0.09 0.08 0.08 0.09 0.09 0.08 0.13 0.22 0.35 0.61 0.87 1.11 1.09 0.87 0.83 0.63 0.45 0.40 0.41 0.40 0.39 0.40 0.48 0.66 0.67 0.66 0.70 0.80 1.03 1.18 1.35 1.53 1.70 1.77 1.74 1.76 1.89 2.06 2.07 1.92 1.83 1.66
0.04 0.04 0.07 0.08 0.09 0.11 0.10 0.09 0.10 0.16 0.29 0.47 0.78 1.13 1.20 1.06 0.93 0.75 0.64 0.47 0.38 0.38 0.38 0.38 0.42 0.49 0.49 0.48 0.60 0.81 0.97 0.99 1.24 1.55 1.73 1.62 1.60 1.50 1.64 1.72 1.77 1.83 1.78 1.78
0.04 0.04 0.06 0.08 0.11 0.14 0.14 0.11 0.11 0.14 0.17 0.31 0.67 0.88 0.78 0.83 0.77 0.68 0.61 0.52 0.46 0.42 0.42 0.43 0.42 0.42 0.52 0.47 0.55 0.70 0.82 0.96 1.24 1.56 1.75 1.73 1.58 1.57 1.68 1.61 1.59 1.72 1.76 1.75
0.05 0.04 0.06 0.11 0.16 0.16 0.14 0.14 0.14 0.20 0.19 0.22 0.37 0.59 0.47 0.57 0.67 0.63 0.48 0.41 0.38 0.32 0.35 0.34 0.31 0.35 0.35 0.35 0.47 0.77 1.09 1.44 1.59 1.83 2.05 2.05 1.76 1.60 1.53 1.40 1.42 1.62 1.81 1.83
0.05 0.05 0.11 0.28 0.32 0.23 0.16 0.13 0.14 0.15 0.15 0.17 0.37 0.57 0.44 0.49 0.59 0.53 0.44 0.39 0.39 0.38 0.34 0.35 0.32 0.39 0.35 0.33 0.38 0.54 0.70 1.03 1.33 1.64 1.89 1.83 1.59 1.43 1.38 1.39 1.45 1.61 1.75 1.76
0.06 0.05 0.09 0.25 0.31 0.31 0.25 0.19 0.16 0.13 0.15 0.19 0.26 0.49 0.48 0.48 0.44 0.44 0.39 0.37 0.44 0.49 0.43 0.40 0.39 0.36 0.35 0.36 0.35 0.44 0.52 0.61 0.81 1.20 1.47 1.48 1.34 1.29 1.31 1.38 1.40 1.40 1.43 1.50
0.07 0.06 0.05 0.06 0.15 0.21 0.23 0.20 0.17 0.13 0.12 0.24 0.26 0.35 0.42 0.52 0.48 0.43 0.39 0.34 0.37 0.45 0.45 0.42 0.41 0.44 0.46 0.50 0.46 0.45 0.49 0.54 0.70 1.08 1.30 1.28 1.25 1.24 1.21 1.21 1.28 1.34 1.41 1.48
0.10 0.10 0.09 0.10 0.13 0.15 0.16 0.19 0.16 0.11 0.10 0.10 0.15 0.29 0.32 0.46 0.49 0.48 0.43 0.41 0.42 0.47 0.43 0.41 0.35 0.43 0.50 0.53 0.52 0.51 0.52 0.57 0.70 0.98 1.20 1.20 1.17 1.14 1.09 1.12 1.20 1.38 1.48 1.64
0.16 0.15 0.14 0.15 0.18 0.17 0.24 0.20 0.16 0.14 0.12 0.13 0.22 0.34 0.33 0.38 0.46 0.50 0.52 0.49 0.45 0.49 0.42 0.34 0.36 0.49 0.68 0.62 0.60 0.64 0.60 0.61 0.75 0.96 1.14 1.22 1.19 1.20 1.17 1.14 1.31 1.50 1.66 1.82
0.29 0.27 0.25 0.21 0.25 0.35 0.26 0.20 0.21 0.24 0.26 0.26 0.29 0.33 0.36 0.42 0.44 0.54 0.62 0.58 0.48 0.50 0.49 0.48 0.46 0.52 0.61 0.59 0.62 0.68 0.68 0.69 0.80 1.00 1.22 1.31 1.25 1.28 1.36 1.38 1.47 1.69 1.91 2.06
0.34 0.39 0.35 0.30 0.34 0.40 0.37 0.29 0.33 0.37 0.41 0.42 0.45 0.39 0.44 0.45 0.50 0.62 0.59 0.59 0.64 0.63 0.60 0.62 0.66 0.64 0.69 0.73 0.74 0.75 0.82 0.86 0.95 1.04 1.21 1.32 1.38 1.47 1.50 1.54 1.72 1.93 2.12 2.17
0.36 0.45 0.49 0.44 0.51 0.57 0.56 0.41 0.35 0.42 0.70 0.56 0.57 0.56 0.51 0.53 0.76 0.80 0.61 0.57 0.60 0.67 0.72 0.69 0.75 0.79 0.82 0.87 0.92 0.93 1.00 1.13 1.28 1.37 1.44 1.62 1.80 1.96 2.04 2.09 2.16 2.21 2.28 2.19
0.64 0.60 0.59 0.63 0.74 0.68 0.53 0.46 0.41 0.77 1.08 0.80 0.78 0.74 0.66 0.77 0.85 0.81 0.66 0.56 0.57 0.59 0.67 0.72 0.74 0.82 0.84 0.88 1.02 1.18 1.27 1.38 1.52 1.66 1.74 1.94 2.23 2.41 2.41 2.42 2.36 2.29 2.29 2.29
0.84 0.80 0.80 0.84 1.06 1.11 0.61 0.58 0.87 1.10 0.92 0.94 0.97 0.93 0.87 0.85 0.89 0.87 0.81 0.63 0.58 0.57 0.59 0.65 0.71 0.78 0.89 1.03 1.26 1.52 1.61 1.58 1.70 1.88 2.04 2.23 2.47 2.42 2.34 2.52 2.46 2.42 2.49 2.46
0.87 0.94 1.02 1.09 1.28 1.07 0.74 0.86 1.05 1.03 0.97 0.98 0.99 0.94 0.84 0.78 0.90 0.85 0.75 0.70 0.57 0.52 0.57 0.63 0.70 0.81 0.93 1.15 1.53 1.80 1.84 1.89 1.96 2.07 2.18 2.24 2.33 2.52 2.68 2.75 2.65 2.57 2.55 2.49
0.99 0.91 1.08 1.28 1.36 1.14 0.98 0.98 0.96 1.00 1.00 0.94 0.86 0.81 0.81 0.76 0.74 0.72 0.65 0.61 0.58 0.56 0.58 0.65 0.75 0.91 1.10 1.30 1.62 1.79 1.82 1.87 1.94 1.97 1.95 2.03 2.18 2.33 2.43 2.66 2.72 2.63 2.49 2.42
1.10 1.02 1.23 1.58 1.64 1.45 1.32 1.15 1.01 1.01 0.97 0.97 0.94 0.86 0.80 0.74 0.68 0.62 0.60 0.58 0.58 0.56 0.61 0.71 0.83 0.95 1.07 1.25 1.44 1.54 1.71 1.79 1.90 1.92 1.87 1.87 1.90 2.00 2.09 2.19 2.29 2.27 2.24 2.06
1.13 1.19 1.39 1.73 1.52 1.43 1.56 1.38 1.17 1.08 1.07 1.13 1.19 1.16 0.98 0.82 0.74 0.70 0.65 0.58 0.54 0.55 0.63 0.75 0.87 0.98 1.08 1.24 1.44 1.52 1.65 1.74 1.80 1.78 1.71 1.73 1.75 1.81 1.85 1.85 1.79 1.62 1.55 1.40